Regional Weather Roundup
Issued by NWS Little Rock, AR

Home | Current Version | Previous Version | Graphics & Text | Print | Product List | Glossary On
Versions: 1 2 3 4 5 6 7 8 9 10 11 12 13 14 15 16 17 18 19 20 21 22 23 24 25 26 27 28 29 30 31 32 33 34 35 36 37 38 39 40 41 42 43 44 45 46 47 48 49
000
ASUS44 KLZK 292005
RWRLZK

WEATHER ROUNDUP FOR ARKANSAS
NATIONAL WEATHER SERVICE LITTLE ROCK AR
300 PM CDT TUE JUL 29 2014

NOTE: "FAIR" INDICATES FEW OR NO CLOUDS BELOW 12,000 FEET WITH NO
SIGNIFICANT WEATHER AND/OR OBSTRUCTIONS TO VISIBILITY.

ARZ001-003-010-029-292100-
NORTHWEST ARKANSAS

CITY           SKY/WX    TMP DP  RH WIND       PRES   REMARKS
FAYETTEVILLE   MOSUNNY   81  58  45 NW9       30.16S
FORT SMITH     SUNNY     86  59  39 CALM      30.11F HX  85
HARRISON       MOSUNNY   80  55  42 VRB3      30.16F
BENTONVILLE    MOSUNNY   81  57  44 N8        30.18S
ROGERS         PTSUNNY   81  58  45 VRB6      30.17F
SILOAM SPGS    MOSUNNY   82  59  44 N6        30.17S
HIGHFILL       PTSUNNY   81  59  47 NW3       30.16S
SPRINGDALE     PTSUNNY   81  59  47 W9G16     30.18S
$$

ARZ004-005-016-292100-
NORTH CENTRAL ARKANSAS

CITY           SKY/WX    TMP DP  RH WIND       PRES   REMARKS
BATESVILLE     MOSUNNY   81  55  41 CALM      30.13S
FLIPPIN        SUNNY     82  54  36 N3        30.14F
MTN HOME       MOSUNNY   82  56  40 MISG      30.14F
$$

ARZ040-041-292100-
WEST CENTRAL ARKANSAS

CITY           SKY/WX    TMP DP  RH WIND       PRES   REMARKS
MENA           MOSUNNY   86  64  48 CALM      30.14F HX  87
MOUNT IDA      MOSUNNY   82  63  52 W3        30.12S
$$

ARZ009-017-025-026-028-292100-
NORTHEAST ARKANSAS

CITY           SKY/WX    TMP DP  RH WIND       PRES   REMARKS
CORNING          N/A     77  57  50 SE3       30.14S
JONESBORO      MOSUNNY   80  56  43 N9        30.13S
NEWPORT        MOSUNNY   80  57  45 E8        30.15S
WALNUT RIDGE   SUNNY     79  55  44 E7        30.13F
BLYTHEVILLE    PTSUNNY   79  57  46 N7        30.13S
NW BLYTHEVILLE MOSUNNY   77  54  44 NW7       30.13S
$$

ARZ022-023-033-042-044-292100-
CENTRAL ARKANSAS

CITY           SKY/WX    TMP DP  RH WIND       PRES   REMARKS
LITTLE ROCK    MOSUNNY   84  57  39 VRB3      30.12F
N LITTLE ROCK  MOSUNNY   82  62  51 NE9       30.12F
JACKSONVILLE   MOSUNNY   82  59  45 NE6       30.13F
SEARCY         SUNNY     81  56  42 CALM      30.14S
HOT SPRINGS    CLOUDY    83  63  50 VRB5      30.13S
RUSSELLVILLE   PTSUNNY   81  60  48 VRB3      30.12F
CLINTON        FAIR      82  57  42 CALM      30.13F
$$

ARZ036-292100-
EAST ARKANSAS

CITY           SKY/WX    TMP DP  RH WIND       PRES   REMARKS
WEST MEMPHIS   SUNNY     79  57  46 N14       30.11F
$$

ARZ050-053-066-070-073-292100-
SOUTHWEST ARKANSAS

CITY           SKY/WX    TMP DP  RH WIND       PRES   REMARKS
ARKADELPHIA    FAIR      84  63  49 VRB3      30.11F HX  85
CAMDEN         MOSUNNY   86  63  45 NE9       30.10S HX  87
TEXARKANA      SUNNY     89  64  43 N9        30.10F HX  90
EL DORADO      MOSUNNY   86  64  47 N7        30.10F HX  87
DE QUEEN       MOSUNNY   86  65  49 S5        30.09F HX  88
$$

ARZ056-057-069-292100-
SOUTHEAST ARKANSAS

CITY           SKY/WX    TMP DP  RH WIND       PRES   REMARKS
PINE BLUFF     SUNNY     83  59  44 N9        30.12F
STUTTGART      SUNNY     82  61  47 NW7       30.13F
MONTICELLO     SUNNY     85  60  42 VRB7      30.10F HX  85

$$




USA.gov is the U.S. government's official web portal to all federal, state and local government web resources and services.